| time (UTC) | temp F | wind direction | speed MPH | gust MPH | rain 1hr in | rain 24hr in | rain mn in | humidity % | barometer mb |
| 20260503184907 | 58 | 283 | 3.0 | 12.0 | 0.00 | 0.00 | 0.00 | 44 | 1009.2 |
| 20260503184407 | 60 | 278 | 7.0 | 13.0 | 0.00 | 0.00 | 0.00 | 42 | 1009.0 |
| 20260503183908 | 60 | 275 | 3.0 | 6.0 | 0.00 | 0.00 | 0.00 | 41 | 1008.9 |
| 20260503183408 | 60 | 259 | 3.0 | 8.0 | 0.00 | 0.00 | 0.00 | 42 | 1008.8 |
| 20260503182908 | 59 | 268 | 5.0 | 7.0 | 0.00 | 0.00 | 0.00 | 41 | 1009.0 |
| 20260503182407 | 59 | 268 | 6.0 | 7.0 | 0.00 | 0.00 | 0.00 | 40 | 1009.1 |
| 20260503181909 | 59 | 268 | 8.0 | 12.0 | 0.00 | 0.00 | 0.00 | 40 | 1008.9 |
| 20260503181408 | 59 | 266 | 3.0 | 6.0 | 0.00 | 0.00 | 0.00 | 42 | 1009.1 |
| 20260503180908 | 59 | 263 | 6.0 | 8.0 | 0.00 | 0.00 | 0.00 | 39 | 1009.1 |
| 20260503180408 | 59 | 280 | 5.0 | 7.0 | 0.00 | 0.00 | 0.00 | 39 | 1009.3 |
| 20260503175907 | 60 | 260 | 3.0 | 5.0 | 0.00 | 0.00 | 0.00 | 39 | 1009.0 |
| 20260503175407 | 61 | 265 | 3.0 | 6.0 | 0.00 | 0.00 | 0.00 | 39 | 1008.9 |
| 20260503174908 | 62 | 271 | 3.0 | 6.0 | 0.00 | 0.00 | 0.00 | 37 | 1009.1 |
| 20260503174408 | 63 | 257 | 6.0 | 9.0 | 0.00 | 0.00 | 0.00 | 36 | 1009.0 |
| 20260503173908 | 62 | 279 | 2.0 | 7.0 | 0.00 | 0.00 | 0.00 | 36 | 1009.0 |
| 20260503173407 | 62 | 284 | 6.0 | 9.0 | 0.00 | 0.00 | 0.00 | 38 | 1009.1 |
| 20260503172907 | 62 | 276 | 3.0 | 7.0 | 0.00 | 0.00 | 0.00 | 37 | 1009.3 |
| 20260503172408 | 63 | 237 | 2.0 | 3.0 | 0.00 | 0.00 | 0.00 | 38 | 1009.4 |
| 20260503171908 | 62 | 282 | 2.0 | 5.0 | 0.00 | 0.00 | 0.00 | 40 | 1009.5 |
| 20260503171407 | 62 | 276 | 2.0 | 5.0 | 0.00 | 0.00 | 0.00 | 38 | 1009.2 |
| 20260503170907 | 61 | 270 | 3.0 | 5.0 | 0.00 | 0.00 | 0.00 | 40 | 1009.5 |
| 20260503170409 | 61 | 267 | 5.0 | 6.0 | 0.00 | 0.00 | 0.00 | 40 | 1009.5 |
| 20260503150908 | 54 | 280 | 2.0 | 3.0 | 0.00 | 0.00 | 0.00 | 46 | 1010.8 |
| 20260503150409 | 53 | 280 | 2.0 | 2.0 | 0.00 | 0.00 | 0.00 | 46 | 1011.1 |
| 20260503131217 | 47 | 271 | 1.0 | 2.0 | 0.00 | 0.00 | 0.00 | 55 | 1012.0 |
| 20260503130717 | 47 | 277 | 1.0 | 1.0 | 0.00 | 0.00 | 0.00 | 55 | 1011.9 |
| 20260503130217 | 47 | 271 | 1.0 | 3.0 | 0.00 | 0.00 | 0.00 | 55 | 1012.2 |
| 20260503120216 | 39 | 272 | 1.0 | 1.0 | 0.00 | 0.00 | 0.00 | 70 | 1012.3 |
| 20260503110716 | 36 | 285 | 0.0 | 2.0 | 0.00 | 0.00 | 0.00 | 74 | 1012.2 |
| 20260503110216 | 37 | 284 | 0.0 | 1.0 | 0.00 | 0.00 | 0.00 | 74 | 1012.3 |
| 20260503100217 | 33 | 284 | 0.0 | 1.0 | 0.00 | 0.00 | 0.00 | 77 | 1012.0 |
| 20260503090217 | 34 | 284 | 1.0 | 1.0 | 0.00 | 0.00 | 0.00 | 75 | 1012.5 |
| 20260503081217 | 34 | 283 | 0.0 | 1.0 | 0.00 | 0.00 | 0.00 | 77 | 1012.3 |
| 20260503080718 | 33 | 282 | 0.0 | 1.0 | 0.00 | 0.00 | 0.00 | 77 | 1012.5 |
| 20260503080216 | 33 | 282 | 0.0 | 1.0 | 0.00 | 0.00 | 0.00 | 78 | 1012.5 |
| 20260503072833 | 33 | 281 | 0.0 | 0.0 | 0.00 | 0.00 | 0.00 | 80 | 1012.5 |
| 20260503072717 | 33 | 282 | 0.0 | 0.0 | 0.00 | 0.00 | 0.00 | 80 | 1012.3 |
| 20260503072216 | 33 | 281 | 0.0 | 0.0 | 0.00 | 0.00 | 0.00 | 80 | 1012.4 |
| 20260503071717 | 33 | 282 | 0.0 | 0.0 | 0.00 | 0.00 | 0.00 | 81 | 1012.5 |
| 20260503071217 | 33 | 280 | 0.0 | 1.0 | 0.00 | 0.00 | 0.00 | 81 | 1012.7 |
| 20260503070717 | 33 | 283 | 0.0 | 0.0 | 0.00 | 0.00 | 0.00 | 81 | 1012.5 |
| 20260503070217 | 32 | 283 | 0.0 | 1.0 | 0.00 | 0.00 | 0.00 | 82 | 1012.6 |
| 20260503060216 | 32 | 282 | 0.0 | 0.0 | 0.00 | 0.00 | 0.00 | 80 | 1013.4 |
| 20260503054717 | 31 | 283 | 0.0 | 0.0 | 0.00 | 0.00 | 0.00 | 79 | 1013.4 |
| 20260503054218 | 31 | 283 | 0.0 | 0.0 | 0.00 | 0.00 | 0.00 | 79 | 1013.4 |
| 20260503053716 | 31 | 283 | 0.0 | 0.0 | 0.00 | 0.00 | 0.00 | 79 | 1013.4 |
| 20260503053216 | 30 | 283 | 0.0 | 0.0 | 0.00 | 0.00 | 0.00 | 79 | 1013.4 |
| 20260503052717 | 30 | 283 | 0.0 | 0.0 | 0.00 | 0.00 | 0.00 | 77 | 1013.4 |
| 20260503052217 | 30 | 283 | 0.0 | 0.0 | 0.00 | 0.00 | 0.00 | 77 | 1013.5 |
| 20260503051718 | 30 | 283 | 0.0 | 0.0 | 0.00 | 0.00 | 0.00 | 76 | 1013.6 |
| 20260503051218 | 31 | 283 | 0.0 | 0.0 | 0.00 | 0.00 | 0.00 | 76 | 1013.4 |
| 20260503050718 | 31 | 283 | 0.0 | 0.0 | 0.00 | 0.00 | 0.00 | 75 | 1013.4 |
| 20260503050216 | 31 | 283 | 0.0 | 0.0 | 0.00 | 0.00 | 0.00 | 73 | 1013.7 |
| 20260503045716 | 32 | 283 | 0.0 | 0.0 | 0.00 | 0.00 | 0.00 | 72 | 1013.7 |
| 20260503045217 | 32 | 283 | 0.0 | 0.0 | 0.00 | 0.00 | 0.00 | 72 | 1013.6 |
| 20260503044717 | 32 | 283 | 0.0 | 0.0 | 0.00 | 0.00 | 0.00 | 71 | 1013.8 |
| 20260503044217 | 33 | 283 | 0.0 | 0.0 | 0.00 | 0.00 | 0.00 | 70 | 1013.7 |
| 20260503043717 | 33 | 283 | 0.0 | 0.0 | 0.00 | 0.00 | 0.00 | 69 | 1013.7 |
| 20260503043216 | 33 | 283 | 0.0 | 0.0 | 0.00 | 0.00 | 0.00 | 68 | 1013.7 |
| 20260503042716 | 34 | 283 | 0.0 | 0.0 | 0.00 | 0.00 | 0.00 | 68 | 1013.8 |
| 20260503042216 | 34 | 283 | 0.0 | 0.0 | 0.00 | 0.00 | 0.00 | 68 | 1013.8 |
| 20260503041717 | 34 | 283 | 0.0 | 0.0 | 0.00 | 0.00 | 0.00 | 68 | 1014.0 |
| 20260503041217 | 34 | 283 | 0.0 | 0.0 | 0.00 | 0.00 | 0.00 | 68 | 1013.9 |
| 20260503040718 | 34 | 283 | 0.0 | 0.0 | 0.00 | 0.00 | 0.00 | 67 | 1014.0 |
| 20260503040216 | 34 | 283 | 0.0 | 0.0 | 0.00 | 0.00 | 0.00 | 66 | 1013.9 |
| 20260503035716 | 34 | 285 | 0.0 | 0.0 | 0.00 | 0.00 | 0.00 | 66 | 1013.9 |
| 20260503035217 | 34 | 285 | 0.0 | 0.0 | 0.00 | 0.00 | 0.00 | 66 | 1013.9 |
| 20260503034717 | 34 | 285 | 0.0 | 0.0 | 0.00 | 0.00 | 0.00 | 66 | 1014.0 |
| 20260503034217 | 34 | 285 | 0.0 | 0.0 | 0.00 | 0.00 | 0.00 | 65 | 1013.9 |
| 20260503033717 | 34 | 285 | 0.0 | 0.0 | 0.00 | 0.00 | 0.00 | 65 | 1013.7 |
| 20260503033218 | 35 | 285 | 0.0 | 0.0 | 0.00 | 0.00 | 0.00 | 64 | 1014.0 |
| 20260503032716 | 35 | 285 | 0.0 | 0.0 | 0.00 | 0.00 | 0.00 | 64 | 1014.1 |
| 20260503032216 | 35 | 285 | 0.0 | 0.0 | 0.00 | 0.00 | 0.00 | 64 | 1014.1 |
| 20260503031716 | 35 | 285 | 0.0 | 0.0 | 0.00 | 0.00 | 0.00 | 64 | 1014.0 |
| 20260503031217 | 35 | 285 | 0.0 | 0.0 | 0.00 | 0.00 | 0.00 | 63 | 1014.2 |
| 20260503030717 | 35 | 285 | 0.0 | 0.0 | 0.00 | 0.00 | 0.00 | 63 | 1014.1 |
| 20260503030217 | 35 | 285 | 0.0 | 0.0 | 0.00 | 0.00 | 0.00 | 63 | 1014.0 |
| 20260503025718 | 35 | 285 | 0.0 | 0.0 | 0.00 | 0.00 | 0.00 | 63 | 1014.0 |
| 20260503025218 | 35 | 285 | 0.0 | 0.0 | 0.00 | 0.00 | 0.00 | 63 | 1014.3 |
| 20260503024717 | 35 | 285 | 0.0 | 0.0 | 0.00 | 0.00 | 0.00 | 63 | 1014.4 |
| 20260503024217 | 35 | 285 | 0.0 | 0.0 | 0.00 | 0.00 | 0.00 | 62 | 1014.3 |
| 20260503023717 | 35 | 285 | 0.0 | 0.0 | 0.00 | 0.00 | 0.00 | 62 | 1014.3 |
| 20260503023217 | 35 | 285 | 0.0 | 0.0 | 0.00 | 0.00 | 0.00 | 62 | 1014.4 |
| 20260503022716 | 36 | 285 | 0.0 | 0.0 | 0.00 | 0.00 | 0.00 | 62 | 1014.4 |
| 20260503022216 | 36 | 285 | 0.0 | 0.0 | 0.00 | 0.00 | 0.00 | 61 | 1014.5 |
| 20260503021716 | 36 | 285 | 0.0 | 0.0 | 0.00 | 0.00 | 0.00 | 61 | 1014.5 |
| 20260503021217 | 36 | 285 | 0.0 | 0.0 | 0.00 | 0.00 | 0.00 | 61 | 1014.4 |
| 20260503020716 | 36 | 285 | 0.0 | 0.0 | 0.00 | 0.00 | 0.00 | 60 | 1014.4 |
| 20260503020216 | 37 | 285 | 0.0 | 0.0 | 0.00 | 0.00 | 0.00 | 60 | 1014.5 |
| 20260503015717 | 36 | 285 | 0.0 | 0.0 | 0.00 | 0.00 | 0.00 | 60 | 1014.3 |
| 20260503015217 | 36 | 285 | 0.0 | 0.0 | 0.00 | 0.00 | 0.00 | 59 | 1014.2 |
| 20260503014716 | 37 | 285 | 0.0 | 0.0 | 0.00 | 0.00 | 0.00 | 58 | 1014.3 |
| 20260503014216 | 37 | 285 | 0.0 | 0.0 | 0.00 | 0.00 | 0.00 | 58 | 1014.2 |
| 20260503013716 | 37 | 285 | 0.0 | 0.0 | 0.00 | 0.00 | 0.00 | 56 | 1014.3 |
| 20260503013217 | 37 | 285 | 0.0 | 0.0 | 0.00 | 0.00 | 0.00 | 55 | 1014.4 |
| 20260503012716 | 37 | 285 | 0.0 | 0.0 | 0.00 | 0.00 | 0.00 | 54 | 1014.4 |
| 20260503012216 | 37 | 285 | 0.0 | 0.0 | 0.00 | 0.00 | 0.00 | 54 | 1014.3 |
| 20260503011716 | 38 | 285 | 0.0 | 0.0 | 0.00 | 0.00 | 0.00 | 53 | 1014.1 |
| 20260503011216 | 39 | 285 | 0.0 | 0.0 | 0.00 | 0.00 | 0.00 | 51 | 1014.2 |
| 20260503010718 | 39 | 285 | 0.0 | 0.0 | 0.00 | 0.00 | 0.00 | 50 | 1014.2 |
| 20260503010216 | 40 | 285 | 0.0 | 0.0 | 0.00 | 0.00 | 0.00 | 49 | 1014.3 |
| 20260503005716 | 39 | 285 | 0.0 | 0.0 | 0.00 | 0.00 | 0.00 | 50 | 1014.3 |
| 20260503005217 | 40 | 285 | 0.0 | 0.0 | 0.00 | 0.00 | 0.00 | 49 | 1014.2 |
| 20260503004717 | 40 | 285 | 0.0 | 0.0 | 0.00 | 0.00 | 0.00 | 47 | 1014.1 |
| 20260503004216 | 41 | 285 | 0.0 | 0.0 | 0.00 | 0.00 | 0.00 | 46 | 1014.0 |
| 20260503003716 | 41 | 288 | 0.0 | 0.0 | 0.00 | 0.00 | 0.00 | 44 | 1014.0 |
| 20260503003218 | 41 | 288 | 1.0 | 1.0 | 0.00 | 0.00 | 0.00 | 43 | 1014.0 |
| 20260503002717 | 42 | 289 | 0.0 | 1.0 | 0.00 | 0.00 | 0.00 | 42 | 1014.0 |
| 20260503002217 | 42 | 286 | 0.0 | 0.0 | 0.00 | 0.00 | 0.00 | 43 | 1014.0 |
| 20260503001717 | 42 | 306 | 1.0 | 3.0 | 0.00 | 0.00 | 0.00 | 43 | 1014.0 |
| 20260503001216 | 42 | 307 | 2.0 | 3.0 | 0.00 | 0.00 | 0.00 | 42 | 1013.9 |
| 20260503000716 | 42 | 288 | 1.0 | 3.0 | 0.00 | 0.00 | 0.00 | 43 | 1014.0 |
| 20260503000218 | 43 | 293 | 1.0 | 3.0 | 0.00 | 0.00 | 0.00 | 40 | 1013.9 |
| 20260502235716 | 43 | 300 | 2.0 | 2.0 | 0.00 | 0.00 | 0.00 | 39 | 1014.1 |
| 20260502235216 | 43 | 299 | 1.0 | 3.0 | 0.00 | 0.00 | 0.00 | 41 | 1014.0 |
| 20260502234716 | 43 | 299 | 2.0 | 3.0 | 0.00 | 0.00 | 0.00 | 40 | 1014.1 |
| 20260502234218 | 43 | 310 | 2.0 | 3.0 | 0.00 | 0.00 | 0.00 | 39 | 1014.1 |
| 20260502233718 | 44 | 323 | 2.0 | 5.0 | 0.00 | 0.00 | 0.00 | 41 | 1013.9 |
| 20260502233218 | 44 | 276 | 2.0 | 2.0 | 0.00 | 0.00 | 0.00 | 38 | 1014.0 |
| 20260502232717 | 44 | 295 | 3.0 | 5.0 | 0.00 | 0.00 | 0.00 | 38 | 1013.8 |
| 20260502232217 | 44 | 316 | 3.0 | 5.0 | 0.00 | 0.00 | 0.00 | 38 | 1014.0 |
| 20260502231717 | 44 | 280 | 1.0 | 2.0 | 0.00 | 0.00 | 0.00 | 38 | 1013.9 |
| 20260502231217 | 44 | 287 | 2.0 | 2.0 | 0.00 | 0.00 | 0.00 | 37 | 1013.9 |
| 20260502230717 | 45 | 287 | 2.0 | 5.0 | 0.00 | 0.00 | 0.00 | 37 | 1014.0 |
| 20260502230216 | 44 | 280 | 5.0 | 6.0 | 0.00 | 0.00 | 0.00 | 39 | 1014.0 |
| 20260502225716 | 45 | 294 | 2.0 | 3.0 | 0.00 | 0.00 | 0.00 | 38 | 1014.2 |
| 20260502225217 | 46 | 266 | 2.0 | 5.0 | 0.00 | 0.00 | 0.00 | 37 | 1014.0 |
| 20260502224717 | 44 | 304 | 1.0 | 2.0 | 0.00 | 0.00 | 0.00 | 39 | 1013.9 |
| 20260502224217 | 44 | 309 | 3.0 | 5.0 | 0.00 | 0.00 | 0.00 | 38 | 1014.0 |
| 20260502223717 | 44 | 319 | 1.0 | 3.0 | 0.00 | 0.00 | 0.00 | 38 | 1014.0 |
| 20260502223217 | 44 | 316 | 3.0 | 6.0 | 0.00 | 0.00 | 0.00 | 38 | 1014.0 |
| 20260502222717 | 44 | 326 | 3.0 | 6.0 | 0.00 | 0.00 | 0.00 | 36 | 1014.0 |
| 20260502222217 | 45 | 280 | 2.0 | 5.0 | 0.00 | 0.00 | 0.00 | 35 | 1014.2 |
| 20260502221716 | 45 | 307 | 5.0 | 7.0 | 0.00 | 0.00 | 0.00 | 36 | 1014.0 |
| 20260502221216 | 44 | 0 | 6.0 | 7.0 | 0.00 | 0.00 | 0.00 | 38 | 1013.9 |
| 20260502220716 | 44 | 10 | 6.0 | 8.0 | 0.00 | 0.00 | 0.00 | 38 | 1014.1 |
| 20260502220216 | 45 | 0 | 5.0 | 8.0 | 0.00 | 0.00 | 0.00 | 39 | 1014.1 |
| 20260502215717 | 46 | 293 | 1.0 | 2.0 | 0.00 | 0.00 | 0.00 | 39 | 1013.9 |
| 20260502215217 | 45 | 317 | 1.0 | 3.0 | 0.00 | 0.00 | 0.00 | 36 | 1014.2 |
| 20260502214717 | 46 | 285 | 5.0 | 6.0 | 0.00 | 0.00 | 0.00 | 36 | 1014.0 |
| 20260502214217 | 45 | 278 | 2.0 | 3.0 | 0.00 | 0.00 | 0.00 | 38 | 1013.9 |
| 20260502213717 | 44 | 21 | 7.0 | 9.0 | 0.00 | 0.00 | 0.00 | 39 | 1014.0 |
| 20260502213217 | 44 | 315 | 3.0 | 6.0 | 0.00 | 0.00 | 0.00 | 43 | 1014.1 |
| 20260502212717 | 45 | 348 | 3.0 | 6.0 | 0.00 | 0.00 | 0.00 | 42 | 1014.0 |
| 20260502212217 | 45 | 326 | 3.0 | 5.0 | 0.00 | 0.00 | 0.00 | 41 | 1014.0 |
| 20260502211717 | 45 | 320 | 2.0 | 3.0 | 0.00 | 0.00 | 0.00 | 41 | 1014.4 |
| 20260502211217 | 44 | 321 | 2.0 | 5.0 | 0.00 | 0.00 | 0.00 | 44 | 1013.9 |
| 20260502210716 | 45 | 280 | 3.0 | 3.0 | 0.00 | 0.00 | 0.00 | 39 | 1013.9 |
| 20260502210216 | 45 | 297 | 2.0 | 3.0 | 0.00 | 0.00 | 0.00 | 45 | 1014.0 |
| 20260502205716 | 45 | 311 | 3.0 | 6.0 | 0.00 | 0.00 | 0.00 | 41 | 1014.0 |
| 20260502205216 | 45 | 291 | 2.0 | 5.0 | 0.00 | 0.00 | 0.00 | 43 | 1014.2 |
| 20260502204716 | 45 | 291 | 2.0 | 3.0 | 0.00 | 0.00 | 0.00 | 44 | 1014.1 |
| 20260502204216 | 45 | 282 | 1.0 | 2.0 | 0.00 | 0.00 | 0.00 | 41 | 1013.8 |
| 20260502203716 | 45 | 270 | 2.0 | 5.0 | 0.00 | 0.00 | 0.00 | 42 | 1014.1 |
| 20260502203217 | 46 | 333 | 3.0 | 6.0 | 0.00 | 0.00 | 0.00 | 42 | 1014.1 |
| 20260502202717 | 45 | 333 | 2.0 | 8.0 | 0.00 | 0.00 | 0.00 | 43 | 1014.3 |
| 20260502202217 | 45 | 275 | 2.0 | 3.0 | 0.00 | 0.00 | 0.00 | 41 | 1014.0 |
| 20260502201716 | 44 | 302 | 1.0 | 2.0 | 0.00 | 0.00 | 0.00 | 47 | 1014.1 |
| 20260502201216 | 44 | 326 | 3.0 | 5.0 | 0.00 | 0.00 | 0.00 | 44 | 1014.2 |
| 20260502200716 | 44 | 318 | 2.0 | 3.0 | 0.00 | 0.00 | 0.00 | 44 | 1014.4 |
| 20260502200216 | 44 | 278 | 5.0 | 6.0 | 0.00 | 0.00 | 0.00 | 43 | 1014.3 |
| 20260502195716 | 45 | 286 | 2.0 | 5.0 | 0.00 | 0.00 | 0.00 | 45 | 1014.3 |
| 20260502195217 | 45 | 310 | 3.0 | 5.0 | 0.00 | 0.00 | 0.00 | 46 | 1014.6 |
| 20260502194716 | 45 | 257 | 2.0 | 5.0 | 0.00 | 0.00 | 0.00 | 47 | 1014.6 |
| 20260502194216 | 45 | 268 | 2.0 | 3.0 | 0.00 | 0.00 | 0.00 | 44 | 1014.4 |
| 20260502193717 | 45 | 329 | 3.0 | 6.0 | 0.00 | 0.00 | 0.00 | 46 | 1014.5 |
| 20260502193217 | 45 | 306 | 3.0 | 7.0 | 0.00 | 0.00 | 0.00 | 45 | 1014.6 |
| 20260502192718 | 44 | 280 | 2.0 | 2.0 | 0.00 | 0.00 | 0.00 | 45 | 1014.6 |
| 20260502192216 | 45 | 282 | 3.0 | 6.0 | 0.00 | 0.00 | 0.00 | 44 | 1014.6 |
| 20260502191716 | 44 | 263 | 3.0 | 3.0 | 0.00 | 0.00 | 0.00 | 45 | 1014.8 |
| 20260502191216 | 44 | 261 | 3.0 | 6.0 | 0.00 | 0.00 | 0.00 | 47 | 1014.8 |
| 20260502190716 | 44 | 281 | 1.0 | 1.0 | 0.00 | 0.00 | 0.00 | 47 | 1014.5 |
| 20260502190216 | 45 | 273 | 3.0 | 3.0 | 0.00 | 0.00 | 0.00 | 46 | 1014.7 |
| 20260502185717 | 45 | 320 | 2.0 | 3.0 | 0.00 | 0.00 | 0.00 | 47 | 1014.8 |
| 20260502185216 | 44 | 283 | 2.0 | 3.0 | 0.00 | 0.00 | 0.00 | 45 | 1014.8 |